Location: ????????
(55.0097°N, 38.5678°E)
Time: 07:37:11
(UTC+00:00)

SL-16 R/B - Visible Passes

Search period start: 13 July 2024 00:00
Search period end: 23 July 2024 00:00
Orbit: 984 x 1007 km, 99.7° (Epoch: 13 July)

Date Brightness Start Highest point End Pass type
(mag) Time Alt. Az. Time Alt. Az. Time Alt. Az.
13 Jul 5.0 21:28:09 10° E 21:31:58 17° NE 21:35:47 10° N visible
13 Jul 3.3 23:08:23 10° SE 23:14:24 55° ENE 23:20:24 10° NNW visible
14 Jul 4.7 21:57:31 10° E 22:02:14 24° NE 22:06:57 10° N visible
14 Jul 2.7 23:38:52 10° SSE 23:45:03 81° ENE 23:51:16 10° NNW visible
15 Jul 5.3 20:48:51 10° NE 20:50:43 11° NNE 20:52:35 10° NNE visible
15 Jul 4.2 22:27:13 10° ESE 22:32:36 33° NE 22:38:00 10° N visible
16 Jul 2.6 00:09:41 10° S 00:15:50 68° WSW 00:22:02 10° NNW visible
16 Jul 5.1 21:17:27 10° ENE 21:20:50 15° NE 21:24:13 10° N visible
16 Jul 3.5 22:57:14 10° SE 23:03:06 47° ENE 23:08:59 10° N visible
17 Jul 4.9 21:46:38 10° E 21:51:03 21° NE 21:55:27 10° N visible
17 Jul 2.9 23:27:35 10° SSE 23:33:43 70° ENE 23:39:52 10° NNW visible
18 Jul 5.5 20:38:51 10° NE 20:39:38 10° NNE 20:40:25 10° NNE visible
18 Jul 4.4 22:16:13 10° ESE 22:21:23 29° NE 22:26:33 10° N visible
18 Jul 2.5 23:58:16 10° SSE 00:04:28 79° WSW 00:10:41 10° NNW visible
19 Jul 5.1 21:06:49 10° ENE 21:09:43 14° NE 21:12:35 10° N visible
19 Jul 3.8 22:46:08 10° SE 22:51:50 41° ENE 22:57:33 10° N visible
20 Jul 5.0 21:35:50 10° E 21:39:53 19° NE 21:43:56 10° N visible
20 Jul 3.1 23:16:20 10° SE 23:22:24 60° ENE 23:28:28 10° NNW visible
21 Jul 4.6 22:05:16 10° ESE 22:10:10 26° NE 22:15:04 10° N visible
21 Jul 2.6 23:46:55 10° SSE 23:53:05 89° ENE 23:59:19 10° NNW visible
22 Jul 5.2 20:56:17 10° NE 20:58:36 12° NNE 21:00:54 10° N visible
22 Jul 4.0 22:35:04 10° ESE 22:40:34 36° NE 22:46:06 10° N visible
